| time (UTC) | temp F | wind direction | speed MPH | gust MPH | rain 1hr in | rain 24hr in | rain mn in | humidity % | barometer mb |
| 20260509221243 | 60 | 187 | 2.0 | 2.0 | 0.00 | 0.00 | 0.00 | 73 | 1005.0 |
| 20260509220739 | 60 | 171 | 0.0 | 0.0 | 0.00 | 0.00 | 0.00 | 73 | 1004.8 |
| 20260509220236 | 61 | 193 | 1.0 | 2.0 | 0.00 | 0.00 | 0.00 | 71 | 1005.2 |
| 20260509215731 | 62 | 148 | 1.0 | 1.0 | 0.00 | 0.00 | 0.00 | 71 | 1005.0 |
| 20260509215228 | 61 | 161 | 0.0 | 0.0 | 0.00 | 0.00 | 0.00 | 72 | 1005.2 |
| 20260509214725 | 61 | 168 | 1.0 | 1.0 | 0.00 | 0.00 | 0.00 | 73 | 1005.2 |
| 20260509214222 | 59 | 155 | 1.0 | 2.0 | 0.00 | 0.00 | 0.00 | 76 | 1005.1 |
| 20260509213719 | 59 | 160 | 1.0 | 2.0 | 0.00 | 0.00 | 0.00 | 75 | 1005.1 |
| 20260509213214 | 59 | 167 | 1.0 | 2.0 | 0.00 | 0.00 | 0.00 | 75 | 1005.1 |
| 20260509212712 | 59 | 154 | 2.0 | 2.0 | 0.00 | 0.00 | 0.00 | 75 | 1005.2 |
| 20260509212209 | 59 | 149 | 0.0 | 0.0 | 0.00 | 0.00 | 0.00 | 77 | 1004.9 |
| 20260509211705 | 59 | 134 | 1.0 | 2.0 | 0.00 | 0.00 | 0.00 | 77 | 1005.3 |
| 20260509211201 | 59 | 148 | 0.0 | 0.0 | 0.00 | 0.00 | 0.00 | 76 | 1005.4 |
| 20260509210658 | 59 | 165 | 0.0 | 1.0 | 0.00 | 0.00 | 0.00 | 76 | 1005.4 |
| 20260509210156 | 59 | 161 | 0.0 | 1.0 | 0.00 | 0.00 | 0.00 | 76 | 1005.3 |
| 20260509205651 | 59 | 136 | 0.0 | 0.0 | 0.00 | 0.00 | 0.00 | 77 | 1005.4 |
| 20260509205150 | 59 | 153 | 0.0 | 1.0 | 0.00 | 0.00 | 0.00 | 77 | 1005.3 |
| 20260509204646 | 59 | 130 | 0.0 | 1.0 | 0.00 | 0.00 | 0.00 | 77 | 1005.5 |
| 20260509204143 | 59 | 139 | 0.0 | 1.0 | 0.00 | 0.00 | 0.00 | 75 | 1005.4 |
| 20260509203639 | 59 | 155 | 0.0 | 0.0 | 0.00 | 0.00 | 0.00 | 76 | 1005.4 |
| 20260509203137 | 59 | 143 | 0.0 | 1.0 | 0.00 | 0.00 | 0.00 | 75 | 1005.5 |
| 20260509202637 | 59 | 169 | 0.0 | 1.0 | 0.00 | 0.00 | 0.00 | 75 | 1005.5 |
| 20260509202133 | 59 | 156 | 1.0 | 2.0 | 0.00 | 0.00 | 0.00 | 74 | 1005.5 |
| 20260509201628 | 59 | 140 | 0.0 | 1.0 | 0.00 | 0.00 | 0.00 | 73 | 1005.5 |
| 20260509201126 | 60 | 153 | 0.0 | 0.0 | 0.00 | 0.00 | 0.00 | 73 | 1005.7 |
| 20260509200621 | 60 | 136 | 1.0 | 2.0 | 0.00 | 0.00 | 0.00 | 74 | 1005.6 |
| 20260509200117 | 59 | 207 | 2.0 | 2.0 | 0.00 | 0.00 | 0.00 | 75 | 1005.8 |
| 20260509195613 | 60 | 214 | 2.0 | 2.0 | 0.00 | 0.00 | 0.00 | 75 | 1005.6 |
| 20260509195108 | 60 | 177 | 0.0 | 1.0 | 0.00 | 0.00 | 0.00 | 73 | 1005.7 |
| 20260509194607 | 61 | 167 | 0.0 | 0.0 | 0.00 | 0.00 | 0.00 | 72 | 1005.7 |
| 20260509194105 | 61 | 186 | 2.0 | 2.0 | 0.00 | 0.00 | 0.00 | 73 | 1005.8 |
| 20260509193601 | 61 | 121 | 2.0 | 2.0 | 0.00 | 0.00 | 0.00 | 71 | 1005.9 |
| 20260509193057 | 61 | 178 | 2.0 | 2.0 | 0.00 | 0.00 | 0.00 | 72 | 1006.0 |
| 20260509192554 | 60 | 187 | 2.0 | 2.0 | 0.00 | 0.00 | 0.00 | 73 | 1006.0 |
| 20260509192048 | 60 | 213 | 1.0 | 2.0 | 0.00 | 0.00 | 0.00 | 72 | 1006.2 |
| 20260509191543 | 59 | 156 | 1.0 | 1.0 | 0.00 | 0.00 | 0.00 | 74 | 1006.3 |
| 20260509191039 | 59 | 214 | 1.0 | 2.0 | 0.00 | 0.00 | 0.00 | 75 | 1006.0 |
| 20260509190536 | 60 | 187 | 2.0 | 2.0 | 0.00 | 0.00 | 0.00 | 74 | 1006.2 |
| 20260509190034 | 59 | 197 | 1.0 | 2.0 | 0.00 | 0.00 | 0.00 | 75 | 1006.4 |
| 20260509185531 | 59 | 139 | 0.0 | 0.0 | 0.00 | 0.00 | 0.00 | 77 | 1006.4 |
| 20260509185027 | 59 | 111 | 2.0 | 3.0 | 0.00 | 0.00 | 0.00 | 75 | 1006.4 |
| 20260509184526 | 60 | 159 | 2.0 | 3.0 | 0.00 | 0.00 | 0.00 | 75 | 1006.5 |
| 20260509184022 | 60 | 175 | 1.0 | 2.0 | 0.00 | 0.00 | 0.00 | 74 | 1006.7 |
| 20260509183517 | 60 | 118 | 1.0 | 2.0 | 0.00 | 0.00 | 0.00 | 75 | 1006.7 |
| 20260509183013 | 59 | 167 | 2.0 | 2.0 | 0.00 | 0.00 | 0.00 | 77 | 1006.7 |
| 20260509182510 | 57 | 142 | 0.0 | 0.0 | 0.00 | 0.00 | 0.00 | 79 | 1006.8 |
| 20260509182007 | 57 | 150 | 0.0 | 1.0 | 0.00 | 0.00 | 0.00 | 79 | 1006.7 |
| 20260509181505 | 57 | 156 | 1.0 | 2.0 | 0.00 | 0.00 | 0.00 | 78 | 1006.7 |
| 20260509181002 | 57 | 199 | 1.0 | 2.0 | 0.00 | 0.00 | 0.00 | 78 | 1006.7 |
| 20260509180457 | 58 | 170 | 1.0 | 2.0 | 0.00 | 0.00 | 0.00 | 79 | 1006.9 |
| 20260509175955 | 57 | 162 | 0.0 | 0.0 | 0.00 | 0.00 | 0.00 | 81 | 1006.6 |
| 20260509175450 | 56 | 146 | 0.0 | 0.0 | 0.00 | 0.00 | 0.00 | 82 | 1006.9 |
| 20260509174947 | 55 | 174 | 1.0 | 1.0 | 0.00 | 0.00 | 0.00 | 81 | 1006.9 |
| 20260509174443 | 55 | 181 | 1.0 | 1.0 | 0.00 | 0.00 | 0.00 | 82 | 1007.0 |
| 20260509173939 | 55 | 165 | 2.0 | 2.0 | 0.00 | 0.00 | 0.00 | 81 | 1006.7 |
| 20260509173433 | 55 | 171 | 1.0 | 1.0 | 0.00 | 0.00 | 0.00 | 81 | 1006.9 |
| 20260509172930 | 55 | 175 | 1.0 | 1.0 | 0.00 | 0.00 | 0.00 | 81 | 1006.9 |
| 20260509172427 | 55 | 187 | 4.0 | 5.0 | 0.00 | 0.00 | 0.00 | 81 | 1006.9 |
| 20260509171922 | 56 | 186 | 2.0 | 2.0 | 0.00 | 0.00 | 0.00 | 81 | 1006.8 |
| 20260509171419 | 55 | 167 | 1.0 | 1.0 | 0.00 | 0.00 | 0.00 | 82 | 1006.9 |
| 20260509170915 | 55 | 167 | 1.0 | 1.0 | 0.00 | 0.00 | 0.00 | 81 | 1006.8 |
| 20260509170411 | 55 | 158 | 0.0 | 0.0 | 0.00 | 0.00 | 0.00 | 82 | 1006.9 |
| 20260509165907 | 54 | 162 | 0.0 | 0.0 | 0.00 | 0.00 | 0.00 | 83 | 1007.1 |
| 20260509165401 | 54 | 152 | 0.0 | 0.0 | 0.00 | 0.00 | 0.00 | 82 | 1007.3 |
| 20260509164857 | 54 | 166 | 1.0 | 1.0 | 0.00 | 0.00 | 0.00 | 82 | 1007.3 |
| 20260509164353 | 55 | 165 | 1.0 | 1.0 | 0.00 | 0.00 | 0.00 | 82 | 1007.3 |
| 20260509163849 | 55 | 156 | 0.0 | 0.0 | 0.00 | 0.00 | 0.00 | 82 | 1007.0 |
| 20260509163346 | 54 | 154 | 0.0 | 0.0 | 0.00 | 0.00 | 0.00 | 82 | 1007.1 |
| 20260509162845 | 54 | 168 | 1.0 | 1.0 | 0.00 | 0.00 | 0.00 | 82 | 1007.5 |
| 20260509162338 | 54 | 175 | 1.0 | 2.0 | 0.00 | 0.00 | 0.00 | 82 | 1007.4 |
| 20260509161834 | 54 | 164 | 1.0 | 2.0 | 0.00 | 0.00 | 0.00 | 82 | 1007.7 |
| 20260509161331 | 54 | 225 | 3.0 | 3.0 | 0.00 | 0.00 | 0.00 | 82 | 1008.0 |
| 20260509160826 | 54 | 168 | 0.0 | 1.0 | 0.00 | 0.00 | 0.00 | 82 | 1007.7 |
| 20260509160323 | 54 | 148 | 0.0 | 0.0 | 0.00 | 0.00 | 0.00 | 83 | 1007.9 |
| 20260509155818 | 54 | 157 | 1.0 | 1.0 | 0.00 | 0.00 | 0.00 | 83 | 1007.7 |
| 20260509155315 | 53 | 151 | 1.0 | 1.0 | 0.00 | 0.00 | 0.00 | 85 | 1008.0 |
| 20260509154811 | 53 | 149 | 0.0 | 0.0 | 0.00 | 0.00 | 0.00 | 85 | 1008.2 |
| 20260509154308 | 52 | 149 | 0.0 | 0.0 | 0.00 | 0.00 | 0.00 | 86 | 1007.9 |
| 20260509153805 | 52 | 149 | 0.0 | 0.0 | 0.00 | 0.00 | 0.00 | 86 | 1007.8 |
| 20260509153301 | 51 | 156 | 0.0 | 0.0 | 0.00 | 0.00 | 0.00 | 86 | 1008.1 |
| 20260509152758 | 52 | 147 | 0.0 | 0.0 | 0.00 | 0.00 | 0.00 | 86 | 1008.1 |
| 20260509152253 | 52 | 154 | 0.0 | 0.0 | 0.00 | 0.00 | 0.00 | 86 | 1008.0 |
| 20260509151751 | 52 | 155 | 0.0 | 0.0 | 0.00 | 0.00 | 0.00 | 86 | 1008.1 |
| 20260509151247 | 52 | 165 | 0.0 | 0.0 | 0.00 | 0.00 | 0.00 | 86 | 1008.0 |
| 20260509150746 | 52 | 154 | 0.0 | 0.0 | 0.00 | 0.00 | 0.00 | 85 | 1008.0 |
| 20260509150244 | 52 | 176 | 2.0 | 2.0 | 0.00 | 0.00 | 0.00 | 85 | 1008.1 |
| 20260509145740 | 52 | 161 | 0.0 | 0.0 | 0.00 | 0.00 | 0.00 | 85 | 1008.3 |
| 20260509145240 | 52 | 178 | 1.0 | 1.0 | 0.00 | 0.00 | 0.00 | 84 | 1008.2 |
| 20260509144737 | 53 | 177 | 1.0 | 2.0 | 0.00 | 0.00 | 0.00 | 84 | 1008.3 |
| 20260509144234 | 53 | 170 | 1.0 | 1.0 | 0.00 | 0.00 | 0.00 | 85 | 1008.3 |
| 20260509143731 | 52 | 178 | 2.0 | 3.0 | 0.00 | 0.00 | 0.00 | 85 | 1008.3 |
| 20260509143228 | 52 | 167 | 0.0 | 1.0 | 0.00 | 0.00 | 0.00 | 85 | 1008.5 |
| 20260509142724 | 52 | 154 | 0.0 | 1.0 | 0.00 | 0.00 | 0.00 | 86 | 1008.5 |
| 20260509142221 | 52 | 215 | 2.0 | 2.0 | 0.00 | 0.00 | 0.00 | 86 | 1008.2 |
| 20260509141716 | 52 | 155 | 0.0 | 0.0 | 0.00 | 0.00 | 0.00 | 86 | 1008.6 |
| 20260509141214 | 52 | 169 | 1.0 | 1.0 | 0.00 | 0.00 | 0.00 | 86 | 1008.4 |
| 20260509140710 | 52 | 149 | 0.0 | 0.0 | 0.00 | 0.00 | 0.00 | 86 | 1008.3 |
| 20260509140208 | 51 | 138 | 0.0 | 0.0 | 0.00 | 0.00 | 0.00 | 86 | 1008.5 |
| 20260509135705 | 51 | 133 | 1.0 | 1.0 | 0.00 | 0.00 | 0.00 | 86 | 1008.3 |
| 20260509135203 | 51 | 143 | 0.0 | 0.0 | 0.00 | 0.00 | 0.00 | 86 | 1008.3 |
| 20260509134659 | 51 | 145 | 1.0 | 1.0 | 0.00 | 0.00 | 0.00 | 86 | 1008.3 |
| 20260509134157 | 51 | 141 | 0.0 | 0.0 | 0.00 | 0.00 | 0.00 | 86 | 1008.5 |
| 20260509133654 | 51 | 145 | 0.0 | 0.0 | 0.00 | 0.00 | 0.00 | 86 | 1008.6 |
| 20260509133151 | 50 | 147 | 1.0 | 1.0 | 0.00 | 0.00 | 0.00 | 87 | 1008.9 |
| 20260509132649 | 50 | 138 | 1.0 | 1.0 | 0.00 | 0.00 | 0.00 | 87 | 1008.8 |
| 20260509132147 | 50 | 153 | 0.0 | 1.0 | 0.00 | 0.00 | 0.00 | 87 | 1008.7 |
| 20260509131643 | 50 | 144 | 0.0 | 0.0 | 0.00 | 0.00 | 0.00 | 87 | 1008.7 |
| 20260509131140 | 49 | 142 | 0.0 | 0.0 | 0.00 | 0.00 | 0.00 | 88 | 1008.7 |
| 20260509130636 | 49 | 140 | 0.0 | 0.0 | 0.00 | 0.00 | 0.00 | 88 | 1008.9 |
| 20260509130132 | 49 | 144 | 0.0 | 0.0 | 0.00 | 0.00 | 0.00 | 88 | 1008.8 |
| 20260509125629 | 49 | 138 | 0.0 | 0.0 | 0.00 | 0.00 | 0.00 | 88 | 1008.8 |
| 20260509125126 | 48 | 142 | 0.0 | 0.0 | 0.00 | 0.00 | 0.00 | 87 | 1008.7 |
| 20260509124622 | 48 | 144 | 0.0 | 1.0 | 0.00 | 0.00 | 0.00 | 87 | 1008.3 |
| 20260509124119 | 48 | 148 | 0.0 | 1.0 | 0.00 | 0.00 | 0.00 | 87 | 1008.4 |
| 20260509123617 | 48 | 146 | 0.0 | 0.0 | 0.00 | 0.00 | 0.00 | 87 | 1008.4 |
| 20260509123114 | 48 | 151 | 0.0 | 0.0 | 0.00 | 0.00 | 0.00 | 87 | 1008.4 |
| 20260509122610 | 47 | 145 | 0.0 | 0.0 | 0.00 | 0.00 | 0.00 | 87 | 1008.4 |
| 20260509122107 | 47 | 145 | 0.0 | 0.0 | 0.00 | 0.00 | 0.00 | 87 | 1008.4 |
| 20260509121603 | 47 | 151 | 0.0 | 0.0 | 0.00 | 0.00 | 0.00 | 86 | 1008.7 |
| 20260509121101 | 46 | 151 | 0.0 | 0.0 | 0.00 | 0.00 | 0.00 | 86 | 1008.6 |
| 20260509120559 | 46 | 152 | 0.0 | 0.0 | 0.00 | 0.00 | 0.00 | 86 | 1008.8 |
| 20260509120057 | 46 | 143 | 0.0 | 0.0 | 0.00 | 0.00 | 0.00 | 86 | 1008.9 |
| 20260509115554 | 46 | 145 | 0.0 | 0.0 | 0.00 | 0.00 | 0.00 | 86 | 1008.9 |
| 20260509115052 | 46 | 145 | 0.0 | 0.0 | 0.00 | 0.00 | 0.00 | 86 | 1008.9 |
| 20260509114549 | 46 | 150 | 0.0 | 0.0 | 0.00 | 0.00 | 0.00 | 86 | 1009.0 |
| 20260509114048 | 46 | 151 | 0.0 | 0.0 | 0.00 | 0.00 | 0.00 | 85 | 1009.1 |
| 20260509113546 | 46 | 150 | 0.0 | 0.0 | 0.00 | 0.00 | 0.00 | 85 | 1009.1 |
| 20260509113044 | 45 | 150 | 0.0 | 0.0 | 0.00 | 0.00 | 0.00 | 84 | 1009.0 |
| 20260509112540 | 45 | 151 | 0.0 | 0.0 | 0.00 | 0.00 | 0.00 | 84 | 1008.9 |
| 20260509112037 | 45 | 150 | 0.0 | 0.0 | 0.00 | 0.00 | 0.00 | 84 | 1008.9 |
| 20260509111534 | 45 | 150 | 0.0 | 0.0 | 0.00 | 0.00 | 0.00 | 84 | 1008.9 |
| 20260509111031 | 45 | 150 | 0.0 | 0.0 | 0.00 | 0.00 | 0.00 | 84 | 1008.9 |
| 20260509110528 | 45 | 150 | 0.0 | 0.0 | 0.00 | 0.00 | 0.00 | 84 | 1008.9 |
| 20260509110025 | 45 | 150 | 0.0 | 0.0 | 0.00 | 0.00 | 0.00 | 85 | 1008.9 |
| 20260509105523 | 45 | 150 | 0.0 | 0.0 | 0.00 | 0.00 | 0.00 | 84 | 1009.0 |
| 20260509105020 | 45 | 150 | 0.0 | 0.0 | 0.00 | 0.00 | 0.00 | 84 | 1008.8 |
| 20260509104517 | 45 | 150 | 0.0 | 0.0 | 0.00 | 0.00 | 0.00 | 84 | 1009.0 |
| 20260509104014 | 45 | 152 | 0.0 | 0.0 | 0.00 | 0.00 | 0.00 | 84 | 1008.9 |
| 20260509103512 | 44 | 151 | 0.0 | 0.0 | 0.00 | 0.00 | 0.00 | 84 | 1008.8 |
| 20260509103010 | 44 | 152 | 0.0 | 0.0 | 0.00 | 0.00 | 0.00 | 84 | 1008.9 |
| 20260509102507 | 44 | 152 | 0.0 | 0.0 | 0.00 | 0.00 | 0.00 | 83 | 1008.9 |
| 20260509102003 | 44 | 152 | 0.0 | 0.0 | 0.00 | 0.00 | 0.00 | 82 | 1008.8 |
| 20260509101500 | 44 | 152 | 0.0 | 0.0 | 0.00 | 0.00 | 0.00 | 82 | 1008.9 |
| 20260509100957 | 44 | 152 | 0.0 | 0.0 | 0.00 | 0.00 | 0.00 | 80 | 1009.0 |
| 20260509100454 | 44 | 152 | 0.0 | 0.0 | 0.00 | 0.00 | 0.00 | 80 | 1008.9 |
| 20260509095951 | 44 | 152 | 0.0 | 1.0 | 0.00 | 0.00 | 0.00 | 80 | 1008.8 |
| 20260509095447 | 44 | 153 | 0.0 | 1.0 | 0.00 | 0.00 | 0.00 | 79 | 1008.6 |
| 20260509094945 | 44 | 152 | 0.0 | 0.0 | 0.00 | 0.00 | 0.00 | 80 | 1008.7 |
| 20260509094441 | 44 | 152 | 0.0 | 0.0 | 0.00 | 0.00 | 0.00 | 79 | 1008.7 |
| 20260509093939 | 44 | 152 | 0.0 | 0.0 | 0.00 | 0.00 | 0.00 | 79 | 1008.6 |
| 20260509093436 | 44 | 152 | 0.0 | 0.0 | 0.00 | 0.00 | 0.00 | 78 | 1008.5 |
| 20260509092934 | 44 | 152 | 0.0 | 0.0 | 0.00 | 0.00 | 0.00 | 78 | 1008.4 |
| 20260509092432 | 44 | 152 | 0.0 | 0.0 | 0.00 | 0.00 | 0.00 | 78 | 1008.5 |
| 20260509091930 | 44 | 152 | 0.0 | 0.0 | 0.00 | 0.00 | 0.00 | 76 | 1008.5 |
| 20260509091427 | 44 | 152 | 0.0 | 0.0 | 0.00 | 0.00 | 0.00 | 76 | 1008.7 |
| 20260509090924 | 44 | 152 | 0.0 | 0.0 | 0.00 | 0.00 | 0.00 | 76 | 1008.8 |
| 20260509090421 | 44 | 152 | 0.0 | 0.0 | 0.00 | 0.00 | 0.00 | 76 | 1008.7 |
| 20260509085919 | 44 | 152 | 0.0 | 0.0 | 0.00 | 0.00 | 0.00 | 75 | 1008.8 |
| 20260509085416 | 44 | 152 | 0.0 | 0.0 | 0.00 | 0.00 | 0.00 | 75 | 1009.0 |
| 20260509084912 | 44 | 152 | 0.0 | 0.0 | 0.00 | 0.00 | 0.00 | 75 | 1009.0 |
| 20260509084409 | 44 | 153 | 0.0 | 0.0 | 0.00 | 0.00 | 0.00 | 75 | 1009.2 |
| 20260509083906 | 44 | 153 | 0.0 | 0.0 | 0.00 | 0.00 | 0.00 | 75 | 1009.3 |
| 20260509083403 | 44 | 153 | 0.0 | 0.0 | 0.00 | 0.00 | 0.00 | 75 | 1009.3 |
| 20260509082900 | 44 | 153 | 0.0 | 0.0 | 0.00 | 0.00 | 0.00 | 75 | 1009.3 |
| 20260509082357 | 44 | 153 | 0.0 | 0.0 | 0.00 | 0.00 | 0.00 | 74 | 1009.3 |
| 20260509081854 | 44 | 153 | 0.0 | 0.0 | 0.00 | 0.00 | 0.00 | 73 | 1009.3 |
| 20260509081351 | 43 | 153 | 0.0 | 0.0 | 0.00 | 0.00 | 0.00 | 74 | 1009.2 |
| 20260509080849 | 43 | 153 | 0.0 | 0.0 | 0.00 | 0.00 | 0.00 | 75 | 1009.5 |
| 20260509080346 | 43 | 153 | 0.0 | 0.0 | 0.00 | 0.00 | 0.00 | 74 | 1009.3 |
| 20260509075844 | 43 | 153 | 0.0 | 0.0 | 0.00 | 0.00 | 0.00 | 74 | 1009.5 |
| 20260509075341 | 43 | 153 | 0.0 | 0.0 | 0.00 | 0.00 | 0.00 | 74 | 1009.4 |
| 20260509074838 | 43 | 153 | 0.0 | 0.0 | 0.00 | 0.00 | 0.00 | 74 | 1009.6 |
| 20260509074336 | 43 | 153 | 0.0 | 0.0 | 0.00 | 0.00 | 0.00 | 74 | 1009.6 |
| 20260509073832 | 43 | 153 | 0.0 | 0.0 | 0.00 | 0.00 | 0.00 | 74 | 1009.5 |
| 20260509073329 | 43 | 153 | 0.0 | 0.0 | 0.00 | 0.00 | 0.00 | 74 | 1009.4 |
| 20260509072825 | 43 | 153 | 0.0 | 0.0 | 0.00 | 0.00 | 0.00 | 74 | 1009.7 |
| 20260509072322 | 43 | 154 | 0.0 | 0.0 | 0.00 | 0.00 | 0.00 | 77 | 1009.7 |
| 20260509071819 | 44 | 154 | 0.0 | 0.0 | 0.00 | 0.00 | 0.00 | 75 | 1009.5 |
| 20260509071316 | 44 | 154 | 0.0 | 0.0 | 0.00 | 0.00 | 0.00 | 72 | 1009.5 |
| 20260509070813 | 44 | 153 | 0.0 | 1.0 | 0.00 | 0.00 | 0.00 | 70 | 1009.7 |
| 20260509070310 | 44 | 153 | 0.0 | 0.0 | 0.00 | 0.00 | 0.00 | 71 | 1009.6 |
| 20260509065806 | 44 | 153 | 0.0 | 0.0 | 0.00 | 0.00 | 0.00 | 69 | 1009.5 |
| 20260509065305 | 44 | 153 | 0.0 | 0.0 | 0.00 | 0.00 | 0.00 | 69 | 1009.6 |
| 20260509064758 | 44 | 153 | 1.0 | 1.0 | 0.00 | 0.00 | 0.00 | 68 | 1009.7 |
| 20260509064255 | 44 | 153 | 1.0 | 1.0 | 0.00 | 0.00 | 0.00 | 67 | 1009.5 |
| 20260509063753 | 44 | 153 | 0.0 | 1.0 | 0.00 | 0.00 | 0.00 | 67 | 1009.5 |
| 20260509063249 | 44 | 153 | 1.0 | 1.0 | 0.00 | 0.00 | 0.00 | 69 | 1009.6 |
| 20260509062747 | 44 | 154 | 0.0 | 1.0 | 0.00 | 0.00 | 0.00 | 70 | 1009.8 |
| 20260509062243 | 44 | 154 | 0.0 | 0.0 | 0.00 | 0.00 | 0.00 | 71 | 1009.8 |
| 20260509061740 | 44 | 154 | 0.0 | 0.0 | 0.00 | 0.00 | 0.00 | 71 | 1010.0 |
| 20260509061238 | 44 | 154 | 0.0 | 1.0 | 0.00 | 0.00 | 0.00 | 71 | 1009.8 |
| 20260509060736 | 44 | 154 | 0.0 | 0.0 | 0.00 | 0.00 | 0.00 | 74 | 1010.1 |
| 20260509060232 | 44 | 154 | 0.0 | 0.0 | 0.00 | 0.00 | 0.00 | 76 | 1010.1 |
| 20260509055727 | 44 | 154 | 0.0 | 0.0 | 0.00 | 0.00 | 0.00 | 76 | 1010.2 |
| 20260509055224 | 44 | 154 | 0.0 | 1.0 | 0.00 | 0.00 | 0.00 | 73 | 1010.5 |
| 20260509054720 | 44 | 154 | 0.0 | 0.0 | 0.00 | 0.00 | 0.00 | 73 | 1010.4 |
| 20260509054217 | 44 | 154 | 1.0 | 1.0 | 0.00 | 0.00 | 0.00 | 74 | 1010.4 |
| 20260509053716 | 44 | 154 | 0.0 | 1.0 | 0.00 | 0.00 | 0.00 | 74 | 1010.4 |
| 20260509053212 | 43 | 154 | 0.0 | 0.0 | 0.00 | 0.00 | 0.00 | 75 | 1010.7 |
| 20260509052710 | 43 | 154 | 0.0 | 0.0 | 0.00 | 0.00 | 0.00 | 79 | 1010.9 |
| 20260509052208 | 43 | 154 | 0.0 | 0.0 | 0.00 | 0.00 | 0.00 | 76 | 1010.9 |
| 20260509051705 | 43 | 154 | 0.0 | 0.0 | 0.00 | 0.00 | 0.00 | 76 | 1011.2 |
| 20260509051203 | 43 | 154 | 0.0 | 0.0 | 0.00 | 0.00 | 0.00 | 78 | 1010.8 |
| 20260509050700 | 43 | 154 | 0.0 | 0.0 | 0.00 | 0.00 | 0.00 | 76 | 1010.9 |
| 20260509050156 | 43 | 154 | 0.0 | 0.0 | 0.00 | 0.00 | 0.00 | 77 | 1011.0 |
| 20260509045653 | 43 | 154 | 0.0 | 0.0 | 0.00 | 0.00 | 0.00 | 77 | 1010.7 |
| 20260509045150 | 43 | 154 | 0.0 | 0.0 | 0.00 | 0.00 | 0.00 | 77 | 1010.9 |
| 20260509044647 | 43 | 154 | 0.0 | 0.0 | 0.00 | 0.00 | 0.00 | 77 | 1011.0 |
| 20260509044145 | 43 | 154 | 0.0 | 0.0 | 0.00 | 0.00 | 0.00 | 76 | 1011.3 |
| 20260509043641 | 43 | 155 | 0.0 | 0.0 | 0.00 | 0.00 | 0.00 | 76 | 1011.0 |
| 20260509043137 | 43 | 155 | 0.0 | 0.0 | 0.00 | 0.00 | 0.00 | 77 | 1011.2 |
| 20260509042634 | 43 | 154 | 0.0 | 0.0 | 0.00 | 0.00 | 0.00 | 77 | 1011.0 |
| 20260509042129 | 43 | 154 | 0.0 | 0.0 | 0.00 | 0.00 | 0.00 | 74 | 1011.1 |
| 20260509041626 | 43 | 154 | 0.0 | 0.0 | 0.00 | 0.00 | 0.00 | 75 | 1011.1 |
| 20260509041124 | 43 | 155 | 0.0 | 0.0 | 0.00 | 0.00 | 0.00 | 78 | 1011.2 |
| 20260509040622 | 42 | 155 | 0.0 | 0.0 | 0.00 | 0.00 | 0.00 | 75 | 1011.1 |
| 20260509040119 | 42 | 155 | 0.0 | 0.0 | 0.00 | 0.00 | 0.00 | 76 | 1010.9 |
| 20260509035615 | 42 | 155 | 0.0 | 0.0 | 0.00 | 0.10 | 0.10 | 77 | 1011.1 |
| 20260509035112 | 42 | 155 | 0.0 | 0.0 | 0.00 | 0.10 | 0.10 | 76 | 1011.2 |
| 20260509034610 | 42 | 154 | 0.0 | 0.0 | 0.00 | 0.10 | 0.10 | 79 | 1011.3 |
| 20260509034107 | 42 | 154 | 0.0 | 0.0 | 0.00 | 0.10 | 0.10 | 78 | 1011.1 |
| 20260509033604 | 42 | 154 | 0.0 | 0.0 | 0.00 | 0.10 | 0.10 | 79 | 1011.2 |
| 20260509033101 | 42 | 154 | 0.0 | 0.0 | 0.00 | 0.10 | 0.10 | 79 | 1011.1 |
| 20260509032558 | 42 | 155 | 1.0 | 1.0 | 0.00 | 0.10 | 0.10 | 79 | 1011.2 |
| 20260509032055 | 42 | 155 | 0.0 | 0.0 | 0.00 | 0.10 | 0.10 | 79 | 1011.0 |
| 20260509031553 | 42 | 154 | 0.0 | 0.0 | 0.00 | 0.10 | 0.10 | 79 | 1011.1 |
| 20260509031050 | 42 | 154 | 1.0 | 1.0 | 0.00 | 0.10 | 0.10 | 78 | 1011.1 |
| 20260509030548 | 42 | 154 | 0.0 | 1.0 | 0.00 | 0.10 | 0.10 | 78 | 1011.1 |
| 20260509030044 | 43 | 154 | 0.0 | 0.0 | 0.00 | 0.10 | 0.10 | 77 | 1011.0 |
| 20260509025541 | 43 | 154 | 0.0 | 0.0 | 0.00 | 0.10 | 0.10 | 77 | 1011.3 |
| 20260509025036 | 43 | 154 | 1.0 | 1.0 | 0.00 | 0.10 | 0.10 | 76 | 1011.4 |
| 20260509024532 | 43 | 154 | 1.0 | 1.0 | 0.00 | 0.10 | 0.10 | 76 | 1011.2 |
| 20260509024029 | 43 | 154 | 0.0 | 0.0 | 0.00 | 0.10 | 0.10 | 76 | 1011.3 |
| 20260509023527 | 43 | 153 | 0.0 | 1.0 | 0.00 | 0.10 | 0.10 | 76 | 1011.2 |
| 20260509023023 | 43 | 149 | 1.0 | 1.0 | 0.00 | 0.10 | 0.10 | 77 | 1011.4 |
| 20260509022520 | 43 | 142 | 0.0 | 0.0 | 0.00 | 0.10 | 0.10 | 78 | 1011.5 |
| 20260509022018 | 43 | 142 | 0.0 | 0.0 | 0.00 | 0.10 | 0.10 | 78 | 1011.5 |
| 20260509021514 | 44 | 141 | 0.0 | 0.0 | 0.00 | 0.10 | 0.10 | 77 | 1011.4 |
| 20260509021011 | 44 | 141 | 0.0 | 0.0 | 0.00 | 0.10 | 0.10 | 75 | 1011.3 |
| 20260509020510 | 44 | 141 | 0.0 | 0.0 | 0.00 | 0.10 | 0.10 | 74 | 1011.3 |
| 20260509020006 | 44 | 141 | 0.0 | 0.0 | 0.00 | 0.10 | 0.10 | 71 | 1011.3 |
| 20260509015505 | 45 | 141 | 0.0 | 0.0 | 0.00 | 0.10 | 0.10 | 69 | 1011.2 |
| 20260509015002 | 45 | 141 | 0.0 | 0.0 | 0.00 | 0.10 | 0.10 | 67 | 1011.5 |
| 20260509014459 | 45 | 141 | 0.0 | 0.0 | 0.00 | 0.10 | 0.10 | 64 | 1011.2 |
| 20260509013954 | 46 | 141 | 0.0 | 0.0 | 0.00 | 0.10 | 0.10 | 62 | 1011.3 |
| 20260509013452 | 46 | 141 | 0.0 | 0.0 | 0.00 | 0.10 | 0.10 | 61 | 1011.3 |
| 20260509012947 | 46 | 141 | 0.0 | 0.0 | 0.00 | 0.10 | 0.10 | 61 | 1011.0 |
| 20260509012444 | 46 | 141 | 0.0 | 0.0 | 0.00 | 0.10 | 0.10 | 60 | 1011.1 |
| 20260509011941 | 46 | 141 | 0.0 | 0.0 | 0.00 | 0.10 | 0.10 | 60 | 1011.1 |
| 20260509011439 | 46 | 141 | 0.0 | 0.0 | 0.00 | 0.10 | 0.10 | 60 | 1011.0 |
| 20260509010936 | 46 | 141 | 0.0 | 0.0 | 0.00 | 0.10 | 0.10 | 60 | 1010.9 |
| 20260509010434 | 46 | 141 | 0.0 | 0.0 | 0.00 | 0.10 | 0.10 | 59 | 1010.7 |
| 20260509005930 | 46 | 141 | 0.0 | 0.0 | 0.00 | 0.10 | 0.10 | 61 | 1010.7 |
| 20260509005428 | 46 | 141 | 0.0 | 0.0 | 0.00 | 0.10 | 0.10 | 60 | 1010.4 |
| 20260509004923 | 47 | 141 | 0.0 | 0.0 | 0.00 | 0.10 | 0.10 | 59 | 1010.5 |
| 20260509004420 | 47 | 141 | 0.0 | 0.0 | 0.00 | 0.10 | 0.10 | 59 | 1010.3 |
| 20260509003918 | 47 | 141 | 0.0 | 0.0 | 0.00 | 0.10 | 0.10 | 58 | 1010.3 |
| 20260509003415 | 47 | 141 | 0.0 | 0.0 | 0.00 | 0.10 | 0.10 | 58 | 1010.5 |
| 20260509002911 | 48 | 141 | 0.0 | 0.0 | 0.00 | 0.10 | 0.10 | 56 | 1010.3 |
| 20260509002410 | 48 | 141 | 0.0 | 0.0 | 0.00 | 0.10 | 0.10 | 55 | 1010.3 |
| 20260509001907 | 48 | 141 | 0.0 | 0.0 | 0.00 | 0.10 | 0.10 | 55 | 1010.4 |
| 20260509001403 | 48 | 141 | 0.0 | 0.0 | 0.00 | 0.10 | 0.10 | 54 | 1010.4 |
| 20260509000900 | 48 | 141 | 0.0 | 0.0 | 0.00 | 0.10 | 0.10 | 55 | 1010.3 |
| 20260509000358 | 48 | 141 | 0.0 | 0.0 | 0.00 | 0.10 | 0.10 | 54 | 1010.1 |
| 20260508235853 | 49 | 141 | 0.0 | 0.0 | 0.00 | 0.10 | 0.10 | 55 | 1010.3 |
| 20260508235351 | 49 | 141 | 0.0 | 0.0 | 0.00 | 0.10 | 0.10 | 54 | 1010.2 |
| 20260508234848 | 49 | 141 | 0.0 | 0.0 | 0.00 | 0.10 | 0.10 | 53 | 1010.1 |
| 20260508234344 | 49 | 141 | 0.0 | 0.0 | 0.00 | 0.10 | 0.10 | 54 | 1010.0 |
| 20260508233843 | 50 | 141 | 0.0 | 0.0 | 0.00 | 0.10 | 0.10 | 53 | 1010.1 |
| 20260508233342 | 50 | 141 | 1.0 | 1.0 | 0.00 | 0.10 | 0.10 | 54 | 1010.1 |
| 20260508232838 | 50 | 141 | 0.0 | 1.0 | 0.00 | 0.10 | 0.10 | 54 | 1009.9 |
| 20260508232334 | 50 | 141 | 0.0 | 0.0 | 0.00 | 0.10 | 0.10 | 53 | 1010.0 |
| 20260508231833 | 51 | 141 | 0.0 | 0.0 | 0.00 | 0.10 | 0.10 | 52 | 1010.2 |
| 20260508231329 | 52 | 141 | 0.0 | 0.0 | 0.00 | 0.10 | 0.10 | 48 | 1010.1 |
| 20260508230826 | 51 | 141 | 0.0 | 0.0 | 0.00 | 0.10 | 0.10 | 49 | 1010.3 |
| 20260508230322 | 51 | 141 | 0.0 | 0.0 | 0.00 | 0.10 | 0.10 | 49 | 1010.0 |
| 20260508225820 | 51 | 141 | 0.0 | 1.0 | 0.00 | 0.10 | 0.10 | 48 | 1009.9 |
| 20260508225316 | 51 | 152 | 0.0 | 0.0 | 0.00 | 0.10 | 0.10 | 54 | 1009.9 |
| 20260508224815 | 51 | 145 | 0.0 | 0.0 | 0.00 | 0.10 | 0.10 | 52 | 1009.9 |
| 20260508224312 | 51 | 146 | 0.0 | 0.0 | 0.00 | 0.10 | 0.10 | 51 | 1009.9 |
| 20260508223809 | 51 | 143 | 1.0 | 1.0 | 0.00 | 0.10 | 0.10 | 49 | 1010.1 |
| 20260508223307 | 52 | 142 | 1.0 | 1.0 | 0.00 | 0.10 | 0.10 | 49 | 1010.2 |
| 20260508222804 | 52 | 171 | 0.0 | 0.0 | 0.00 | 0.10 | 0.10 | 49 | 1010.2 |
| 20260508222301 | 52 | 145 | 0.0 | 1.0 | 0.00 | 0.10 | 0.10 | 51 | 1010.0 |
| 20260508221758 | 52 | 126 | 0.0 | 0.0 | 0.00 | 0.10 | 0.10 | 48 | 1010.1 |